STARLINK-32221, 60342

Orbit data source: Space-Track

STARLINK-32221, 60342 is a payload satellite owned by SpaceX/Seattle (US) in LEO that was launched on Fri, 02 Aug 2024 UTC via an FALCON 9 launch vehicle from the Air Force Eastern Test Range (AFETR). Payload-class satellites include a variety of spacecraft equipped with specific instruments for various scientific and technological missions. These include communications satellites like Starlink; space stations such as the ISS; scientific satellites like the Hubble; Earth observation satellites from companies like Planet Labs, Umbra, and HawkEye 360; GPS; miniature CubeSats for education and research; and military/defense satellites.

Loading next visibility...
Identifier
60342, 2024-136P
Orbit
LEO
Last TLE update
17 hours ago
Origin
Manufacturer
SpaceX/Seattle
Mission
Operational Commercial Communications
Bus & Motor
STARLINK V2M, Unknown motor
Mass
730 kg wet, ~700 kg dry
Launch date (UTC)
2024-08-02 (11 months ago)
Launch vehicle
FALCON 9
Launch site
Air Force Eastern Test Range (AFETR)
Object type
Payload
Rocket body
Debris
Shape & HBR
Box + 2 Pan, 29 m
Radar Cross Section
33.884 m², Large (>1 m²)

Expand to show TLE details & history

TLE from 17 hours ago
0 STARLINK-32221
1 60342U 24136P   25181.69472091 -.00000058  00000-0  10162-4 0  9994
2 60342  53.1597 166.1125 0000938  60.8116 299.2978 15.30192442 51082
Epoch: 2025-06-30T16:40Z
TLE epoch observation values (Epoch: 2025-06-30T16:40:23.886Z)
Latitude
-0.00007°
Longitude
-2.98792°
Altitude
475.823 km
Speed
7.629 km/s
True Right ascension
11h 04m 26s
True Declination
0° 00' 00"
Sunlit
Object was in daylight at epoch
Visualization orbit readout
Latitude
-39.1022°
Longitude
-148.95008°
Altitude
488.666 km
Speed
7.62 km/s
Apparent Right ascension
04h 54m 53s
Apparent Declination
-56° 35' 22"
Sunlit
Object is in daylight
Visualization observer readout
Local Sidereal Time
20:59:42
Azimuth
134.248° SE
Elevation
-47.652°
Doppler factor
1
Orbital elements
Apogee altitude
476.137 km
Perigee altitude
474.851 km
Semi-major axis
6,853.631 km
Eccentricity
0.00009
Inclination
53.1597°
RAAN
166.1125°
Arg. of periapsis
60.8116°
True anomaly
Unknown
Mean anomaly
299.2978°
Eccentric anomaly
Unknown
Mean motion
3.82527 °/min
Orbital period
94.11 mins
BSTAR
0.000010162
Loading maneuver chart data...
Loading SW <> Apogee altitude chart data...
Loading historical data...
Loading historical data...
Loading historical data...
Loading historical data...
Loading historical data...
Loading historical data...
Loading historical data...

STARLINK-32221 Visibility forecast

Observer location: undefined°, undefined°

Span
Click to sort rows by Start time (UTC) header in descending order
Start Az.
Max El. time (UTC)
Max El. Az.
Max El.
End time (UTC)
End Az.
5 mins2025-07-02 01:48:25.805Z250.648° W2025-07-02 01:50:25.805Z355.254° N40.404°2025-07-02 01:53:25.805Z43.824° NE
4 mins2025-07-02 06:45:25.805Z353.045° N2025-07-02 06:46:25.805Z13.554° NNE18.574°2025-07-02 06:49:25.805Z70.845° E
5 mins2025-07-02 08:23:25.805Z302.474° NW2025-07-02 08:25:25.805Z174.284° S43.06°2025-07-02 08:28:25.805Z137.095° SSE
|